(311873) = 2006 WW98

Discovered at Kitt Peak on 2006-11-19 by Spacewatch.

Orbit

Orbit type: Main Belt

Note: WebGL enabled browser required.

epoch2023-02-25.0
epoch JD2460000.5
perihelion date2018-12-10.29068
perihelion JD2458462.79068
argument of perihelion (°)173.50785
ascending node (°)70.51961
inclination (°)7.56289
eccentricity0.0536123
perihelion distance (AU)2.7013968
Tisserand w.r.t. Jupiter3.3
ΔV w.r.t. Earth (km/sec)10.5
semimajor axis (AU)2.8544294
mean anomaly (°)314.26725
mean daily motion (°/day)0.20437360
aphelion distance (AU)3.007
period (years)4.82
P-vector [x]-0.43701300
P-vector [y]-0.83104047
P-vector [z]-0.34408048
Q-vector [x]0.89085563
Q-vector [y]-0.34714037
Q-vector [z]-0.29303551
absolute magnitude16.33
phase slope0.15
uncertainty0
referenceMPO 745323
observations used285
oppositions14
arc length (days)7856
first opposition used2001
last opposition used2023
residual rms (arc-secs)0.74
perturbers coarse indicatorM-v
perturbers precise indicator003Ek
first observation date used2001-11-20.0
last observation date used2023-05-25.0
computer nameMPCLINUX
JD of orbit computation2456494.383149
perihelion JD uncertainty (days)2.8949E-04
argument of perihelion uncertainty (°)6.3180E-05
ascending node uncertainty (°)3.1660E-05
inclination uncertainty (°)7.0476E-06
eccentricity uncertainty 8.5859E-08
perihelion distance uncertainty (AU)2.6805E-07
Minimum Orbit Intersection Distances (in AU)
for orbit epoch: 2460000.5, reference: E2023-KF3
Mercury2.23693
Venus1.97613
Earth1.68802
Mars1.13421
Jupiter1.98941
Saturn6.07007
Uranus15.6328
Neptune26.8739

Observations

290 total observations over interval: 2001 11 20.22454 – 2023 05 25.300442
These data are available for download (format description).

Date (UT) J2000 RA J2000 Dec Magn Location Ref
2001 11 20.22454 03 14 06.19 +14 18 33.5 19.9   704 – Lincoln Laboratory ETS, New Mexico MPS 213844
2001 11 20.23927 03 14 05.32 +14 18 31.8 20.5   704 – Lincoln Laboratory ETS, New Mexico MPS 213844
2001 11 20.25412 03 14 04.58 +14 18 31.7 20.0   704 – Lincoln Laboratory ETS, New Mexico MPS 213844
2001 11 20.28351 03 14 02.90 +14 18 28.7 20.2   704 – Lincoln Laboratory ETS, New Mexico MPS 213844
2001 12 09.23004 02 59 03.35 +14 05 25.0 21.9 V 691 – Steward Observatory, Kitt Peak-Spacewatch MPS 192524
2001 12 09.25159 02 59 02.48 +14 05 25.4 21.9 V 691 – Steward Observatory, Kitt Peak-Spacewatch MPS 192524
2001 12 09.27325 02 59 01.65 +14 05 24.9 22.0 V 691 – Steward Observatory, Kitt Peak-Spacewatch MPS 192524
2004 06 11.17992 15 17 20.25 -16 19 55.0 21.8 V 691 – Steward Observatory, Kitt Peak-Spacewatch MPS 192524
2004 06 11.22088 15 17 18.62 -16 19 56.8 21.5 V 691 – Steward Observatory, Kitt Peak-Spacewatch MPS 192524
2004 06 11.24824 15 17 17.56 -16 19 58.3 21.5 V 691 – Steward Observatory, Kitt Peak-Spacewatch MPS 192524
2005 07 29.45920 23 21 37.18 -15 47 25.0 20.8   644 – Palomar Mountain/NEAT MPS 192524
2005 07 29.47212 23 21 36.91 -15 47 28.7 20.9   644 – Palomar Mountain/NEAT MPS 192524
2005 07 29.48397 23 21 36.68 -15 47 32.0 20.7   644 – Palomar Mountain/NEAT MPS 192524
2005 08 31.30732 23 01 26.39 -18 52 17.5 19.5 R 644 – Palomar Mountain/NEAT MPS 192524
2005 08 31.33195 23 01 25.13 -18 52 24.5 19.9 R 644 – Palomar Mountain/NEAT MPS 192524
2005 08 31.35385 23 01 23.99 -18 52 31.3 20.0 R 644 – Palomar Mountain/NEAT MPS 192524
2006 10 21.39891 04 44 28.71 +20 08 33.7 20.6 V G96 – Mt. Lemmon Survey MPS 192524
2006 10 21.40336 04 44 28.60 +20 08 34.4 20.4 V G96 – Mt. Lemmon Survey MPS 192524
2006 10 21.40792 04 44 28.50 +20 08 34.4 20.0 V G96 – Mt. Lemmon Survey MPS 192524
2006 10 31.27770 04 39 41.07 +20 14 30.3 20.5 V G96 – Mt. Lemmon Survey MPS 192524
2006 10 31.28513 04 39 40.82 +20 14 30.5 21.0 V G96 – Mt. Lemmon Survey MPS 192524
2006 10 31.29237 04 39 40.53 +20 14 31.2 20.5 V G96 – Mt. Lemmon Survey MPS 192524
2006 10 31.29962 04 39 40.24 +20 14 31.1 20.2 V G96 – Mt. Lemmon Survey MPS 192524
2006 11 11.28247 04 31 47.31 +20 18 05.2 20.7 V 691 – Steward Observatory, Kitt Peak-Spacewatch MPS 190823
2006 11 11.29984 04 31 46.41 +20 18 05.0 20.6 V 691 – Steward Observatory, Kitt Peak-Spacewatch MPS 190823
2006 11 11.31720 04 31 45.58 +20 18 05.8 20.8 V 691 – Steward Observatory, Kitt Peak-Spacewatch MPS 190823
2006 11 19.23418 04 24 49.19 +20 18 37.0 20.6 V 691 – Steward Observatory, Kitt Peak-Spacewatch MPS 190823
2006 11 19.25152 04 24 48.21 +20 18 36.8 20.5 V 691 – Steward Observatory, Kitt Peak-Spacewatch MPS 190823
2006 11 19.26884 04 24 47.23 +20 18 37.4 20.7 V 691 – Steward Observatory, Kitt Peak-Spacewatch MPS 190823
2006 11 23.22407 04 21 04.41 +20 18 19.5 20.7 V 691 – Steward Observatory, Kitt Peak-Spacewatch MPS 190823
2006 11 23.24139 04 21 03.37 +20 18 19.4 20.5 V 691 – Steward Observatory, Kitt Peak-Spacewatch MPS 190823
2006 11 23.25870 04 21 02.36 +20 18 19.3 20.6 V 691 – Steward Observatory, Kitt Peak-Spacewatch MPS 190823
2006 11 24.32429 04 20 01.21 +20 18 11.4 19.7 V G96 – Mt. Lemmon Survey MPS 190823
2006 11 24.33188 04 20 00.78 +20 18 11.3 19.9 V G96 – Mt. Lemmon Survey MPS 190823
2006 11 24.33937 04 20 00.38 +20 18 11.0 19.3 V G96 – Mt. Lemmon Survey MPS 190823
2006 11 24.34683 04 19 59.91 +20 18 10.9 19.2 V G96 – Mt. Lemmon Survey MPS 190823
2006 11 27.22892 04 17 13.85 +20 17 44.7   691 – Steward Observatory, Kitt Peak-Spacewatch MPS 190823
2006 11 27.24623 04 17 12.83 +20 17 44.8   691 – Steward Observatory, Kitt Peak-Spacewatch MPS 190823
2006 11 27.26353 04 17 11.81 +20 17 44.5   691 – Steward Observatory, Kitt Peak-Spacewatch MPS 190823
2006 12 12.13689 04 03 20.05 +20 14 44.3 21.3 V 691 – Steward Observatory, Kitt Peak-Spacewatch MPS 192524
2006 12 12.15482 04 03 19.09 +20 14 44.6 21.1 V 691 – Steward Observatory, Kitt Peak-Spacewatch MPS 192524
2006 12 12.21577 04 03 15.83 +20 14 44.4 20.8 V 691 – Steward Observatory, Kitt Peak-Spacewatch MPS 192524
2006 12 12.28754 04 03 12.02 +20 14 43.3 20.6 V G96 – Mt. Lemmon Survey MPS 192524
2006 12 12.29643 04 03 11.55 +20 14 43.1 20.6 V G96 – Mt. Lemmon Survey MPS 192524
2006 12 12.30554 04 03 11.08 +20 14 43.1 20.3 V G96 – Mt. Lemmon Survey MPS 192524
2006 12 12.31469 04 03 10.58 +20 14 42.9 20.1 V G96 – Mt. Lemmon Survey MPS 192524
2006 12 21.09886 03 56 13.45 +20 14 15.5 21.0 V 691 – Steward Observatory, Kitt Peak-Spacewatch MPS 192524
2006 12 21.11775 03 56 12.62 +20 14 15.5 21.0 V 691 – Steward Observatory, Kitt Peak-Spacewatch MPS 192524
2006 12 21.13320 03 56 11.95 +20 14 15.5 21.1 V 691 – Steward Observatory, Kitt Peak-Spacewatch MPS 192524
2006 12 25.08692 03 53 33.33 +20 14 53.2 21.1 V 691 – Steward Observatory, Kitt Peak-Spacewatch MPS 192524
2006 12 25.10784 03 53 32.51 +20 14 54.1 21.0 V 691 – Steward Observatory, Kitt Peak-Spacewatch MPS 192524
2006 12 25.12877 03 53 31.67 +20 14 54.4 21.0 V 691 – Steward Observatory, Kitt Peak-Spacewatch MPS 192524
2010 10 08.369914 23 45 53.274 -13 03 55.76 21.22 g F51 – Pan-STARRS 1, Haleakala MPS 365657
2010 10 08.381708 23 45 52.727 -13 03 56.92 21.07 g F51 – Pan-STARRS 1, Haleakala MPS 365657
2011 11 30.30772 05 27 56.86 +24 38 45.9 20.6 V 691 – Steward Observatory, Kitt Peak-Spacewatch MPS 402403
2011 11 30.32551 05 27 55.86 +24 38 47.7 20.6 V 691 – Steward Observatory, Kitt Peak-Spacewatch MPS 402403
2011 11 30.34332 05 27 54.84 +24 38 49.5 20.9 V 691 – Steward Observatory, Kitt Peak-Spacewatch MPS 402403
2011 12 06.55064 05 22 01.808 +24 48 00.29 20.0 i F51 – Pan-STARRS 1, Haleakala MPS 403847
2011 12 06.56354 05 22 01.027 +24 48 01.56 20.1 i F51 – Pan-STARRS 1, Haleakala MPS 403847
2011 12 06.58927 05 21 59.503 +24 48 03.21 20.0 r F51 – Pan-STARRS 1, Haleakala MPS 403847
2013 03 08.50990 11 35 18.469 +15 15 24.99 20.6 g F51 – Pan-STARRS 1, Haleakala MPS 459189
2013 03 08.52182 11 35 17.845 +15 15 28.68 20.6 g F51 – Pan-STARRS 1, Haleakala MPS 459189
2013 03 08.53497 11 35 17.171 +15 15 32.67 19.9 r F51 – Pan-STARRS 1, Haleakala MPS 459189
2013 03 08.54652 11 35 16.557 +15 15 36.18 20.0 r F51 – Pan-STARRS 1, Haleakala MPS 459189
2013 03 14.36757 11 30 21.96 +15 43 47.2 19.6 V 703 – Catalina Sky Survey MPS 460493
2013 03 14.37367 11 30 21.63 +15 43 49.0 20.1 V 703 – Catalina Sky Survey MPS 460493
2013 03 14.37983 11 30 21.31 +15 43 50.4 21.1 V 703 – Catalina Sky Survey MPS 460493
2013 03 14.38603 11 30 20.91 +15 43 53.1 21.5 V 703 – Catalina Sky Survey MPS 460493
2013 03 14.39216 11 30 20.66 +15 43 54.7 19.9 V 703 – Catalina Sky Survey MPS 460493
2013 03 31.13560 11 17 07.49 +16 35 49.4 20.2 r I41 – Palomar Mountain--ZTF MPS 462624
2013 03 31.17145 11 17 05.97 +16 35 52.8 20.5 r I41 – Palomar Mountain--ZTF MPS 462624
2013 03 31.20069 11 17 04.71 +16 35 56.1 20.3 r I41 – Palomar Mountain--ZTF MPS 462624
2013 06 27.27692 11 36 47.849 +09 22 06.40 21.6 w F51 – Pan-STARRS 1, Haleakala MPS 471322
2013 06 27.28219 11 36 48.150 +09 22 03.53 21.5 w F51 – Pan-STARRS 1, Haleakala MPS 471322
2013 06 27.28746 11 36 48.452 +09 22 00.78 21.5 w F51 – Pan-STARRS 1, Haleakala MPS 471322
2013 06 27.29273 11 36 48.757 +09 21 57.83 21.6 w F51 – Pan-STARRS 1, Haleakala MPS 471322
2015 10 21.35874 00 45 55.962 -05 08 40.75 20.3 i F51 – Pan-STARRS 1, Haleakala MPS 641396
2015 10 21.36973 00 45 55.450 -05 08 41.83 20.3 i F51 – Pan-STARRS 1, Haleakala MPS 641396
2015 10 21.39174 00 45 54.431 -05 08 44.46 19.9 i F51 – Pan-STARRS 1, Haleakala MPS 641396
2015 10 22.32024 00 45 13.028 -05 10 29.72 20.2 i F51 – Pan-STARRS 1, Haleakala MPS 641396
2015 10 22.33127 00 45 12.524 -05 10 31.03 20.3 i F51 – Pan-STARRS 1, Haleakala MPS 641396
2015 10 22.35334 00 45 11.493 -05 10 33.14 20.3 i F51 – Pan-STARRS 1, Haleakala MPS 641396
2015 10 23.32201 00 44 28.954 -05 12 14.69 20.3 i F51 – Pan-STARRS 1, Haleakala MPS 641396
2015 10 23.33700 00 44 28.276 -05 12 16.33 20.3 i F51 – Pan-STARRS 1, Haleakala MPS 641396
2015 10 23.35224 00 44 27.570 -05 12 17.82 20.3 i F51 – Pan-STARRS 1, Haleakala MPS 641396
2015 10 23.36741 00 44 26.907 -05 12 19.28 20.6 i F51 – Pan-STARRS 1, Haleakala MPS 641396
